• In Hungary
  • List of Countries
  • For 7 days
  • Water Temperature
  • Satellite Maps
  • Weather Map
  • News
  • Weather Widgets
  • user-avatar
    Login

    Hourly Weather Boskovice

    Today, 17 December, Sunday

    Time Temperature Precipitation Wind Pressure Humidity
    00:00 -2°C° 0 mm 2 mps 718 mmHg 89%
    01:00 -2°C° 0 mm 2 mps 719 mmHg 91%
    02:00 -2°C° 0 mm 2 mps 719 mmHg 90%
    03:00 -2°C° 0 mm 2 mps 719 mmHg 90%
    04:00 -2°C° 0 mm 2 mps 719 mmHg 90%
    05:00 -2°C° 0 mm 2 mps 719 mmHg 91%
    06:00 -3°C° 0 mm 2 mps 720 mmHg 92%
    07:00 -3°C° 0 mm 2 mps 720 mmHg 92%
    08:00 -2°C° 0 mm 2 mps 720 mmHg 89%
    09:00 -2°C° 0 mm 2 mps 721 mmHg 86%
    10:00 -1°C° 0 mm 2 mps 721 mmHg 83%
    11:00 -1°C° 0.1 mm 3 mps 721 mmHg 80%
    12:00 0°C° 0.1 mm 3 mps 722 mmHg 78%
    13:00 0°C° 0.1 mm 3 mps 722 mmHg 75%
    14:00 0°C° 0.1 mm 3 mps 722 mmHg 78%
    15:00 -1°C° 0.1 mm 2 mps 722 mmHg 82%
    16:00 -1°C° 0.1 mm 2 mps 722 mmHg 85%
    17:00 -2°C° 0.1 mm 2 mps 723 mmHg 87%
    18:00 -2°C° 0.1 mm 2 mps 723 mmHg 89%
    19:00 -3°C° 0.1 mm 2 mps 723 mmHg 91%
    20:00 -3°C° 0.1 mm 2 mps 724 mmHg 91%
    21:00 -3°C° 0.1 mm 2 mps 724 mmHg 91%
    22:00 -3°C° 0.1 mm 2 mps 725 mmHg 90%
    23:00 -4°C° 0 mm 3 mps 725 mmHg 90%

    Tomorrow, 18 December, Monday

    Time Temperature Precipitation Wind Pressure Humidity
    00:00 -5°C° 0 mm 3 mps 725 mmHg 90%
    01:00 -5°C° 0 mm 3 mps 725 mmHg 90%
    02:00 -4°C° 0 mm 2 mps 725 mmHg 89%
    03:00 -4°C° 0 mm 2 mps 725 mmHg 88%
    04:00 -4°C° 0 mm 2 mps 725 mmHg 87%
    05:00 -4°C° 0 mm 2 mps 725 mmHg 88%
    06:00 -5°C° 0 mm 2 mps 725 mmHg 89%
    07:00 -3°C° 0 mm 1 mps 725 mmHg 90%
    08:00 -2°C° 0 mm 1 mps 725 mmHg 86%
    09:00 -2°C° 0 mm 1 mps 726 mmHg 82%
    10:00 -1°C° 0 mm 1 mps 726 mmHg 78%
    11:00 -1°C° 0 mm 1 mps 726 mmHg 74%
    12:00 0°C° 0 mm 1 mps 726 mmHg 70%
    13:00 0°C° 0 mm 1 mps 726 mmHg 66%
    14:00 0°C° 0 mm 1 mps 726 mmHg 70%
    15:00 -2°C° 0 mm 0 mps 726 mmHg 74%
    16:00 -3°C° 0 mm 0 mps 725 mmHg 78%
    17:00 -3°C° 0 mm 0 mps 726 mmHg 79%
    18:00 -3°C° 0 mm 0 mps 726 mmHg 80%
    19:00 -4°C° 0 mm 0 mps 727 mmHg 80%
    20:00 -3°C° 0 mm 1 mps 727 mmHg 81%
    21:00 -3°C° 0 mm 1 mps 727 mmHg 81%
    22:00 -3°C° 0 mm 1 mps 728 mmHg 81%
    23:00 -3°C° 0 mm 1 mps 728 mmHg 81%

    Day after tomorrow, 19 December, Tuesday

    Time Temperature Precipitation Wind Pressure Humidity
    00:00 -3°C° 0 mm 1 mps 728 mmHg 81%
    01:00 -3°C° 0 mm 1 mps 728 mmHg 81%
    02:00 -3°C° 0 mm 1 mps 728 mmHg 81%
    03:00 -4°C° 0 mm 1 mps 728 mmHg 82%
    04:00 -4°C° 0 mm 1 mps 729 mmHg 83%
    05:00 -4°C° 0 mm 1 mps 729 mmHg 84%
    06:00 -4°C° 0 mm 1 mps 729 mmHg 85%
    07:00 -4°C° 0 mm 1 mps 729 mmHg 86%
    08:00 -3°C° 0 mm 1 mps 729 mmHg 84%
    09:00 -3°C° 0 mm 1 mps 730 mmHg 82%
    10:00 -4°C° 0 mm 2 mps 730 mmHg 80%
    11:00 -3°C° 0 mm 2 mps 730 mmHg 78%
    12:00 -3°C° 0 mm 2 mps 730 mmHg 76%
    13:00 -2°C° 0 mm 2 mps 730 mmHg 75%
    14:00 -3°C° 0 mm 2 mps 729 mmHg 79%
    15:00 -1°C° 0 mm 1 mps 729 mmHg 83%
    16:00 -2°C° 0 mm 1 mps 729 mmHg 87%
    17:00 -1°C° 0.2 mm 1 mps 729 mmHg 89%
    18:00 -1°C° 0.2 mm 1 mps 729 mmHg 91%
    19:00 -1°C° 0.2 mm 1 mps 728 mmHg 93%
    20:00 -1°C° 0.3 mm 1 mps 728 mmHg 93%
    21:00 -1°C° 0.3 mm 1 mps 728 mmHg 94%
    22:00 -1°C° 0.3 mm 1 mps 728 mmHg 95%
    23:00 -1°C° 0.1 mm 1 mps 728 mmHg 95%

    20 December, Wednesday

    Time Temperature Precipitation Wind Pressure Humidity
    00:00 -2°C° 0.1 mm 1 mps 728 mmHg 95%
    01:00 -2°C° 0.1 mm 1 mps 728 mmHg 95%
    02:00 -2°C° 0 mm 1 mps 728 mmHg 94%
    03:00 -2°C° 0 mm 1 mps 728 mmHg 94%
    04:00 -3°C° 0 mm 1 mps 728 mmHg 93%
    05:00 -3°C° 0 mm 1 mps 729 mmHg 92%
    06:00 -3°C° 0 mm 1 mps 729 mmHg 91%
    07:00 -4°C° 0 mm 0 mps 730 mmHg 90%
    08:00 -4°C° 0 mm 0 mps 730 mmHg 86%
    09:00 -3°C° 0 mm 0 mps 730 mmHg 83%
    10:00 -2°C° 0 mm 0 mps 731 mmHg 80%
    11:00 -2°C° 0 mm 0 mps 731 mmHg 77%
    12:00 0°C° 0 mm 1 mps 731 mmHg 74%
    13:00 0°C° 0 mm 1 mps 731 mmHg 71%
    14:00 0°C° 0 mm 1 mps 731 mmHg 75%
    15:00 -1°C° 0 mm 1 mps 730 mmHg 80%
    16:00 -2°C° 0 mm 1 mps 730 mmHg 84%
    17:00 -2°C° 0 mm 1 mps 730 mmHg 86%
    18:00 -2°C° 0 mm 1 mps 730 mmHg 87%
    19:00 -3°C° 0 mm 1 mps 730 mmHg 89%
    20:00 -3°C° 0 mm 1 mps 730 mmHg 90%
    21:00 -3°C° 0 mm 1 mps 730 mmHg 91%
    22:00 -3°C° 0 mm 1 mps 730 mmHg 92%
    23:00 -3°C° 0 mm 1 mps 730 mmHg 92%

    21 December, Thursday

    Time Temperature Precipitation Wind Pressure Humidity
    00:00 -3°C° 0 mm 1 mps 729 mmHg 93%
    01:00 -3°C° 0 mm 1 mps 729 mmHg 93%
    02:00 -2°C° 0.1 mm 1 mps 728 mmHg 93%
    03:00 -2°C° 0.1 mm 1 mps 728 mmHg 94%
    04:00 -1°C° 0.1 mm 1 mps 728 mmHg 94%
    05:00 -3°C° 0.7 mm 2 mps 727 mmHg 95%
    06:00 -3°C° 0.7 mm 2 mps 727 mmHg 96%
    07:00 -2°C° 0.7 mm 2 mps 726 mmHg 96%
    08:00 -2°C° 0.9 mm 2 mps 726 mmHg 97%
    09:00 -1°C° 0.9 mm 3 mps 726 mmHg 97%
    10:00 -1°C° 0.9 mm 3 mps 726 mmHg 97%
    11:00 0°C° 0 mm 3 mps 726 mmHg 96%
    12:00 0°C° 0 mm 4 mps 726 mmHg 94%
    13:00 0°C° 0 mm 5 mps 726 mmHg 93%
    14:00 0°C° 0 mm 5 mps 726 mmHg 91%
    15:00 0°C° 0 mm 5 mps 727 mmHg 90%
    16:00 -1°C° 0 mm 5 mps 727 mmHg 88%
    17:00 -1°C° 0 mm 5 mps 727 mmHg 89%
    18:00 -1°C° 0 mm 4 mps 728 mmHg 89%
    19:00 -2°C° 0 mm 4 mps 728 mmHg 90%
    20:00 -2°C° 0 mm 4 mps 728 mmHg 90%
    21:00 -1°C° 0 mm 3 mps 728 mmHg 91%
    22:00 -1°C° 0 mm 3 mps 728 mmHg 91%
    23:00 -1°C° 0.2 mm 3 mps 728 mmHg 91%

    22 December, Friday

    Time Temperature Precipitation Wind Pressure Humidity
    00:00 -1°C° 0.2 mm 2 mps 727 mmHg 92%
    01:00 +1°C° 0.2 mm 1 mps 727 mmHg 92%
    02:00 +1°C° 0.6 mm 1 mps 726 mmHg 93%
    03:00 +2°C° 0.6 mm 1 mps 726 mmHg 93%
    04:00 +2°C° 0.6 mm 1 mps 725 mmHg 93%
    05:00 +2°C° 0.9 mm 1 mps 725 mmHg 94%
    06:00 +2°C° 0.9 mm 1 mps 725 mmHg 95%
    07:00 +2°C° 0.9 mm 1 mps 725 mmHg 95%
    08:00 +2°C° 0.9 mm 1 mps 725 mmHg 96%
    09:00 +2°C° 0.9 mm 1 mps 724 mmHg 96%
    10:00 +2°C° 0.9 mm 1 mps 724 mmHg 97%
    11:00 +1°C° 0.4 mm 2 mps 724 mmHg 97%
    12:00 +1°C° 0.4 mm 2 mps 724 mmHg 97%
    13:00 0°C° 0.4 mm 3 mps 724 mmHg 97%
    14:00 0°C° 0.2 mm 3 mps 725 mmHg 95%
    15:00 -1°C° 0.2 mm 4 mps 726 mmHg 93%
    16:00 -1°C° 0.2 mm 4 mps 726 mmHg 91%
    17:00 -2°C° 0 mm 4 mps 727 mmHg 90%
    18:00 -2°C° 0 mm 5 mps 727 mmHg 88%
    19:00 -4°C° 0 mm 5 mps 727 mmHg 87%
    20:00 -4°C° 0 mm 5 mps 727 mmHg 87%
    21:00 -4°C° 0 mm 5 mps 727 mmHg 88%
    22:00 -3°C° 0 mm 4 mps 727 mmHg 88%
    23:00 -2°C° 0 mm 5 mps 726 mmHg 88%
    Show more